Location: Peebles
(55.6412°N, 3.1714°W)
Time: 14:53:51
(UTC+01:00)

Lacrosse 4 Rocket - Pass Details

Date: 26 September 2021
Orbit: 540 x 616 km, 68.0° (Epoch: 17 October)

Event Time Altitude Azimuth Distance (km) Brightness Sun altitude
Rises 21:15:35 0° 284° (WNW) 2,712 6.3 -19.2°
Reaches altitude 10° 21:18:27 10° 306° (NW) 1,828 5.2 -19.6°
Maximum altitude 21:21:08 17° 347° (NNW) 1,458 4.0 -19.9°
Drops below altitude 10° 21:23:51 10° 28° (NNE) 1,851 4.0 -20.3°
Enters shadow 21:25:15 - 41° (NE) 2,259 4.3 -20.4°
